This is the latest recevied weather packets stored in our database for station/object SQ5LTL-2. If no packets are shown the sender has not sent any weather packets the latest 10 day(s).
| Time | Temp. | Humidity | Pressure | Rain* | Wind** | Luminosity | Snow |
|---|---|---|---|---|---|---|---|
| 1777551919 | 11.11° C | 32% | 1029.3 hPa | 0 mm | - | 561 W/m² | - |
| 1777551335 | 11.67° C | 34% | 1029.5 hPa | 0 mm | - | 568 W/m² | - |
| 1777550732 | 11.11° C | 35% | 1029.4 hPa | 0 mm | - | 582 W/m² | - |
| 1777550431 | 11.11° C | 34% | 1029.5 hPa | 0 mm | - | 585 W/m² | - |
| 1777548923 | 10.56° C | 34% | 1029.7 hPa | 0 mm | - | 607 W/m² | - |
| 1777548321 | 10.56° C | 34% | 1029.8 hPa | 0 mm | - | 620 W/m² | - |
| 1777547718 | 10.56° C | 34% | 1029.9 hPa | 0 mm | - | 628 W/m² | - |
| 1777546834 | 10.56° C | 35% | 1030.1 hPa | 0 mm | - | 633 W/m² | - |
| 1777546533 | 10.56° C | 36% | 1030.1 hPa | 0 mm | - | 637 W/m² | - |
| 1777545928 | 10.56° C | 35% | 1030.3 hPa | 0 mm | - | 633 W/m² | - |
| 1777545326 | 10.56° C | 37% | 1030.3 hPa | 0 mm | - | 633 W/m² | - |
| 1777545026 | 10° C | 36% | 1030.3 hPa | 0 mm | - | 632 W/m² | - |
| 1777544724 | 10° C | 33% | 1030.3 hPa | 0 mm | - | 630 W/m² | - |
| 1777544422 | 10° C | 34% | 1030.4 hPa | 0 mm | - | 627 W/m² | - |
| 1777544121 | 9.44° C | 34% | 1030.4 hPa | 0 mm | - | 627 W/m² | - |
| 1777543819 | 10° C | 35% | 1030.4 hPa | 0 mm | - | 621 W/m² | - |
| 1777543517 | 9.44° C | 35% | 1030.5 hPa | 0 mm | - | 591 W/m² | - |
| 1777543215 | 9.44° C | 32% | 1030.5 hPa | 0 mm | - | 573 W/m² | - |
| 1777542935 | 8.89° C | 32% | 1030.6 hPa | 0 mm | - | 536 W/m² | - |
| 1777542331 | 8.89° C | 31% | 1030.5 hPa | 0 mm | - | 443 W/m² | - |
| 1777542030 | 8.89° C | 31% | 1030.6 hPa | 0 mm | - | 469 W/m² | - |
| 1777541729 | 9.44° C | 29% | 1030.7 hPa | 0 mm | - | 454 W/m² | - |
| 1777541427 | 8.89° C | 31% | 1030.7 hPa | 0 mm | - | 595 W/m² | - |
| 1777541125 | 9.44° C | 28% | 1030.6 hPa | 0 mm | - | 543 W/m² | - |
| 1777540824 | 8.89° C | 30% | 1030.7 hPa | 0 mm | - | 560 W/m² | - |
* Rain latest hour (hover to see other rain measurements)
** Current wind speed in m/s (hover to see current wind gust speed)